IZ2MHJ-3 Weather Reports


time (UTC)temp
C
wind
direction
speed
KPH
gust
KPH
rain 1hr
cm
rain 24hr
cm
rain mn
cm
humidity
%
barometer
mb
20260503072431 20 0.0 0.0 0.00 0.00 0.00 46 1021.1
20260503070431 21 0.0 0.0 0.00 0.00 0.00 42 1021.0
20260503054430 16 0.0 0.0 0.00 0.00 0.00 57 1021.3
20260503052429 15 0.0 0.0 0.00 0.00 0.00 61 1021.3
20260503050429 13 0.0 0.0 0.00 0.00 0.00 64 1021.4
20260503044429 12 0.0 0.0 0.00 0.00 0.00 65 1021.3
20260503042428 12 0.0 0.0 0.00 0.00 0.00 66 1021.3
20260503040428 12 0.0 0.0 0.00 0.00 0.00 66 1021.2
20260503034428 12 0.0 0.0 0.00 0.00 0.00 65 1021.3
20260503032428 12 0.0 0.0 0.00 0.00 0.00 64 1021.3
20260503030427 12 0.0 0.0 0.00 0.00 0.00 64 1021.3
20260503024427 12 0.0 0.0 0.00 0.00 0.00 63 1021.4
20260503022427 13 0.0 0.0 0.00 0.00 0.00 62 1021.5
20260503020426 13 0.0 0.0 0.00 0.00 0.00 61 1021.6
20260503014426 13 0.0 0.0 0.00 0.00 0.00 60 1021.6
20260503012426 13 0.0 0.0 0.00 0.00 0.00 60 1021.7
20260503010425 13 0.0 0.0 0.00 0.00 0.00 60 1021.8
20260503004425 13 0.0 0.0 0.00 0.00 0.00 58 1021.9
20260503002425 13 0.0 0.0 0.00 0.00 0.00 57 1022.2
20260503000425 14 0.0 0.0 0.00 0.00 0.00 56 1022.4
20260502234424 15 0.0 0.0 0.00 0.00 0.00 54 1022.5
20260502232424 15 0.0 0.0 0.00 0.00 0.00 54 1022.5
20260502230424 15 0.0 0.0 0.00 0.00 0.00 53 1022.7
20260502224423 15 0.0 0.0 0.00 0.00 0.00 52 1022.6
20260502222423 15 0.0 0.0 0.00 0.00 0.00 52 1022.8
20260502220423 16 0.0 0.0 0.00 0.00 0.00 50 1022.7
20260502214423 16 0.0 0.0 0.00 0.00 0.00 49 1022.6
20260502212422 17 0.0 0.0 0.00 0.00 0.00 48 1022.6
20260502210422 17 0.0 0.0 0.00 0.00 0.00 48 1022.4
20260502204421 17 0.0 0.0 0.00 0.00 0.00 47 1022.5
20260502202421 17 0.0 0.0 0.00 0.00 0.00 47 1022.5
20260502200421 18 0.0 0.0 0.00 0.00 0.00 46 1022.6
20260502194421 19 0.0 0.0 0.00 0.00 0.00 44 1022.5
20260502192420 21 0.0 0.0 0.00 0.00 0.00 38 1022.2
20260502190420 21 0.0 0.0 0.00 0.00 0.00 35 1022.1
20260502184420 22 0.0 0.0 0.00 0.00 0.00 33 1021.8
20260502182419 22 0.0 0.0 0.00 0.00 0.00 33 1021.8
20260502180419 23 0.0 0.0 0.00 0.00 0.00 31 1021.6
20260502170418 26 0.0 0.0 0.00 0.00 0.00 27 1021.4
20260502162417 26 0.0 0.0 0.00 0.00 0.00 27 1021.7
20260502160417 26 0.0 0.0 0.00 0.00 0.00 27 1021.8
20260502123051 23 0.0 0.0 0.00 0.00 0.00 30 1024.6
20260502121051 25 0.0 0.0 0.00 0.00 0.00 29 1024.8
20260502115050 23 0.0 0.0 0.00 0.00 0.00 31 1025.2
20260502113050 23 0.0 0.0 0.00 0.00 0.00 32 1025.5
20260502111050 26 0.0 0.0 0.00 0.00 0.00 29 1025.7
20260502105050 22 0.0 0.0 0.00 0.00 0.00 31 1026.3
20260502103049 25 0.0 0.0 0.00 0.00 0.00 29 1026.4
20260502101049 22 0.0 0.0 0.00 0.00 0.00 33 1026.9
20260502091048 24 0.0 0.0 0.00 0.00 0.00 33 1027.2